Weather History for KTEB - December, 2012

Change the Weather History Date:

Saturday, December 8, 2012

  Actual Average Record
Temperature  
Mean Temperature 46 °F -  
Max Temperature 51 °F 44 °F 61 °F (1991)
Min Temperature 42 °F 31 °F 19 °F (2002)
Degree Days  
Heating Degree Days 18    
Moisture  
Dew Point 44 °F    
Average Humidity 94    
Maximum Humidity 100    
Minimum Humidity 86    
Precipitation  
Precipitation 0.25 in - - ()
Sea Level Pressure  
Sea Level Pressure 29.93 in    
Wind  
Wind Speed 3 mph (WSW)    
Max Wind Speed 6 mph    
Max Gust Speed -    
Visibility 3 miles    
Events Rain    
Averages and records for this station are not official NWS values.
T = Trace of Precipitation, MM = Missing Value Source: NWS Daily Summary

Daily Weather History Graph

Daily Weather History Graph

Search for Another Location

Airport or City:

Trip Planner

Search our weather history database for the weather conditions in past years. The results will help you decide how hot, cold, wet, or windy it might be!

Date:

Astronomy

Dec. 08, 2012 Rise Set
Actual Time 7:08 AM EST 4:28 PM EST
Civil Twilight 6:37 AM EST 4:59 PM EST
Nautical Twilight 6:03 AM EST 5:33 PM EST
Astronomical Twilight 5:29 AM EST 6:06 PM EST
Moon 1:28 AM EST (12/8) 12:58 PM EST (12/8)
Length of Visible Light 10h 21m
Length of Day
9h 19m
Waning Crescent, 28% of the Moon is Illuminated
Dec 8
Waning Crescent
Dec 13
New
Dec 20
First Quarter
Dec 28
Full
Jan 4
Last Quarter

Hourly Weather History & Observations

Time (EST) Temp. Windchill Dew Point Humidity Pressure Visibility Wind Dir Wind Speed Gust Speed Precip Events Conditions
12:51 AM 42.1 °F - 39.9 °F 92% 30.00 in 3.0 mi Calm Calm - 0.07 in Rain Rain
1:13 AM 42.8 °F - 39.2 °F 87% 30.01 in 4.0 mi Calm Calm - 0.05 in Rain Rain
1:51 AM 42.1 °F - 41.0 °F 96% 29.99 in 3.0 mi Calm Calm - 0.10 in Rain Rain
2:06 AM 42.8 °F - 41.0 °F 93% 29.99 in 3.0 mi Calm Calm - 0.03 in Rain Light Rain
2:51 AM 43.0 °F 41.3 °F 41.0 °F 93% 29.97 in 5.0 mi NNW 3.5 mph - 0.05 in   Overcast
3:51 AM 43.0 °F 39.5 °F 41.0 °F 93% 29.95 in 4.0 mi North 5.8 mph - 0.00 in   Overcast
4:51 AM 43.0 °F 40.3 °F 41.0 °F 93% 29.93 in 4.0 mi North 4.6 mph - 0.00 in Rain Light Rain
5:51 AM 43.0 °F 41.3 °F 42.1 °F 97% 29.92 in 3.0 mi North 3.5 mph - 0.00 in Rain Light Rain
6:02 AM 42.8 °F 40.1 °F 42.8 °F 100% 29.92 in 1.5 mi North 4.6 mph - 0.00 in Rain Light Rain
6:23 AM 42.8 °F 40.1 °F 42.8 °F 100% 29.92 in 3.0 mi North 4.6 mph - 0.00 in Rain Light Rain
6:51 AM 43.0 °F 40.3 °F 42.1 °F 97% 29.93 in 3.0 mi North 4.6 mph - 0.00 in Rain Light Rain
6:58 AM 42.8 °F 41.1 °F 42.8 °F 100% 29.92 in 1.5 mi North 3.5 mph - 0.00 in Rain Light Rain
7:51 AM 43.0 °F 41.3 °F 42.1 °F 97% 29.91 in 1.5 mi North 3.5 mph - 0.00 in Rain Light Rain
7:57 AM 42.8 °F 40.1 °F 42.8 °F 100% 29.91 in 3.0 mi North 4.6 mph - 0.00 in Rain Light Rain
8:30 AM 44.6 °F 42.2 °F 42.8 °F 93% 29.92 in 2.0 mi NNW 4.6 mph - 0.00 in Rain Light Rain
8:51 AM 44.1 °F 42.5 °F 43.0 °F 96% 29.91 in 2.0 mi North 3.5 mph - 0.00 in Rain Light Rain
9:51 AM 45.0 °F - 44.1 °F 97% 29.93 in 2.5 mi Calm Calm - 0.00 in   Overcast
10:51 AM 46.0 °F 44.8 °F 45.0 °F 96% 29.91 in 2.0 mi NNW 3.5 mph - N/A   Overcast
11:13 AM 46.4 °F - 44.6 °F 93% 29.91 in 4.0 mi Calm Calm - N/A   Overcast
11:51 AM 46.9 °F - 46.0 °F 97% 29.89 in 2.5 mi Calm Calm - N/A   Overcast
12:27 PM 48.2 °F - 46.4 °F 93% 29.88 in 2.5 mi Calm Calm - N/A   Overcast
12:51 PM 48.9 °F - 46.0 °F 90% 29.88 in 3.0 mi Calm Calm - N/A   Overcast
1:22 PM 48.2 °F - 46.4 °F 93% 29.87 in 2.5 mi South 4.6 mph - N/A   Overcast
1:51 PM 48.9 °F - 46.9 °F 93% 29.87 in 2.5 mi South 4.6 mph - N/A   Overcast
1:58 PM 48.2 °F - 46.4 °F 93% 29.87 in 3.0 mi SW 4.6 mph - N/A   Overcast
2:51 PM 50.0 °F - 48.0 °F 93% 29.89 in 3.0 mi SW 4.6 mph - N/A   Overcast
2:58 PM 51.8 °F - 48.2 °F 88% 29.89 in 4.0 mi SW 5.8 mph - N/A   Overcast
3:51 PM 51.1 °F - 46.9 °F 86% 29.90 in 4.0 mi SW 5.8 mph - N/A   Overcast
4:51 PM 50.0 °F - 46.9 °F 89% 29.90 in 4.0 mi SSW 4.6 mph - N/A   Overcast
5:25 PM 48.2 °F - 46.4 °F 93% 29.91 in 5.0 mi SSW 3.5 mph - N/A   Scattered Clouds
5:51 PM 48.0 °F - 46.0 °F 93% 29.91 in 5.0 mi South 3.5 mph - N/A   Clear
6:51 PM 46.0 °F 43.9 °F 44.1 °F 93% 29.93 in 6.0 mi SW 4.6 mph - N/A   Clear
7:48 PM 46.4 °F 43.5 °F 44.6 °F 93% 29.95 in 5.0 mi South 5.8 mph - N/A   Scattered Clouds
7:51 PM 46.0 °F 43.9 °F 45.0 °F 96% 29.95 in 5.0 mi South 4.6 mph - N/A   Mostly Cloudy
8:51 PM 48.0 °F - 46.9 °F 96% 29.96 in 5.0 mi SSW 4.6 mph - N/A   Overcast
9:47 PM 48.2 °F - 46.4 °F 93% 29.97 in 5.0 mi SSW 5.8 mph - 0.01 in Rain Light Rain
9:51 PM 48.9 °F - 46.9 °F 93% 29.97 in 5.0 mi SSW 3.5 mph - 0.01 in Rain Light Rain
10:51 PM 48.9 °F - 48.0 °F 97% 29.99 in 3.0 mi SSW 4.6 mph - 0.00 in   Overcast
11:51 PM 48.0 °F - 46.9 °F 96% 30.00 in 3.0 mi SSW 4.6 mph - 0.02 in   Overcast